Left ArrowRight Arrow

Hourly Observations for April 19, 2019

Temp ( °F °C ) Dew Point ( °F °C ) Humidity (%) Winds ( mph kmh ) Pressure ( in mb ) Visibility ( mi km ) Precip ( " mm )
12:08 am 00:08 Cloudy with Mist and Fog 44 6.7 42 5.6 93 93 Calm 29.90 1013 3 5 0.00 0.00
12:17 am 00:17 Cloudy with Mist and Fog 44 6.7 42 5.6 93 93 Calm 29.88 1012 3 4 0.00 0.00
12:41 am 00:41 Cloudy with Mist and Fog 43 6.1 41 5 93 93 W 5 7 29.89 1012 2 3 0.00 0.00
12:48 am 00:48 Cloudy with Mist and Fog 43 6 41 5 93 93 WNW 3 6 29.88 1012 2 3 0.00 0.00
12:51 am 00:51 Cloudy with Mist and Fog 43 6.1 41 5 93 93 WNW 5 7 29.88 1012 2 3 0.00 0.00
1:00 am 01:00 Cloudy with Mist and Fog 43 6.1 41 5 93 93 WNW 3 6 29.88 1012 2 3 0.00 0.00
1:09 am 01:09 Cloudy with Mist and Fog 43 6.1 41 5 93 93 W 3 6 29.87 1012 3 4 0.00 0.00
1:18 am 01:18 Cloudy with Mist and Fog 43 6.1 41 5 93 93 Calm 29.87 1012 4 6 0.00 0.00
1:51 am 01:51 Cloudy with Light Rain 43 6.1 41 5 93 93 Calm 29.84 1010 3 5 0.00 0.03
2:51 am 02:51 Cloudy 43 6.1 41 5 93 93 SSW 3 6 29.80 1009 7 11 0.00 0.03
3:51 am 03:51 Cloudy with Mist and Fog 43 6.1 41 5 93 93 Calm 29.79 1009 6 10 0.00 0.00
4:51 am 04:51 Cloudy with Mist and Fog 43 6.1 41 5 93 93 Calm 29.79 1009 1 2 0.00 0.00
5:07 am 05:07 Cloudy with Mist and Fog 44 6.7 42 5.6 93 93 Calm 29.79 1009 2 3 0.00 0.00
5:35 am 05:35 Cloudy with Mist and Fog 44 6.7 42 5.6 93 93 Calm 29.78 1009 3 5 0.00 0.00
5:51 am 05:51 Cloudy with Mist and Fog 44 6.7 42 5.6 93 93 Calm 29.79 1009 1 2 0.00 0.00
6:06 am 06:06 Cloudy with Fog 44 6.7 42 5.6 93 93 Calm 29.79 1009 1 1 0.00 0.00
6:51 am 06:51 Cloudy with Mist and Fog 45 7.2 44 6.7 97 97 Calm 29.79 1009 1 1 0.00 0.00
7:10 am 07:10 Mostly Cloudy with Fog 46 7.8 45 7.2 96 96 Calm 29.79 1009 0 0 0.00 0.00
7:51 am 07:51 Mostly Cloudy with Fog 47 8.3 46 7.8 97 97 SW 5 7 29.78 1009 0 0 0.00 0.00
8:25 am 08:25 Cloudy with Fog 49 9.4 47 8.3 93 93 SSW 6 9 29.78 1008 1 1 0.00 0.00
8:38 am 08:38 Mostly Cloudy with Mist and Fog 50 10 49 9.4 96 96 SSW 5 7 29.78 1008 3 5 0.00 0.00
8:51 am 08:51 Mostly Cloudy with Mist and Fog 51 10.6 50 10 96 96 SSW 5 7 29.78 1008 5 8 0.00 0.00
9:01 am 09:01 Mostly Cloudy with Mist and Fog 53 11.7 50 10 89 89 S 7 11 29.78 1008 6 10 0.00 0.00
9:33 am 09:33 Mostly Cloudy 56 13.3 52 11.1 87 87 S 9 15 29.76 1008 10 16 0.00 0.00
9:51 am 09:51 Mostly Cloudy 56 13.3 52 11.1 87 87 SSW 8 13 29.76 1008 10 16 0.00 0.00
10:29 am 10:29 Cloudy 57 13.9 52 11.1 83 83 S 7 11 29.77 1008 10 16 0.00 0.00
10:51 am 10:51 Cloudy 59 15 52 11.1 78 78 SSW 7 11 29.77 1008 10 16 0.00 0.00
11:51 am 11:51 Mostly Cloudy 60 15.6 51 10.6 72 72 SSE 6 9 29.77 1008 10 16 0.00 0.00
12:51 pm 12:51 Mostly Cloudy 63 17.2 52 11.1 68 68 S 13 20 29.73 1007 10 16 0.00 0.00
1:51 pm 13:51 Mostly Cloudy 65 18.3 52 11.1 63 63 S 12 19 29.72 1007 10 16 0.00 0.00
2:51 pm 14:51 Mostly Cloudy 65 18.3 52 11.1 63 63 SSE 12 19 29.70 1006 10 16 0.00 0.00
3:51 pm 15:51 Mostly Cloudy 64 17.8 52 11.1 65 65 S 10 17 29.71 1006 10 16 0.00 0.00
4:51 pm 16:51 Mostly Cloudy 62 16.7 52 11.1 70 70 S 16 26 29.70 1006 10 16 0.00 0.00
5:51 pm 17:51 Partly Cloudy 62 16.7 52 11.1 70 70 S 15 24 29.71 1006 10 16 0.00 0.00
6:51 pm 18:51 Partly Cloudy 58 14.4 50 10 75 75 S 14 22 29.72 1007 10 16 0.00 0.00
7:51 pm 19:51 Mostly Cloudy 59 15 50 10 72 72 S 15 24 29.74 1007 10 16 0.00 0.00
8:51 pm 20:51 Cloudy 61 16.1 52 11.1 72 72 S 17 28 29.76 1008 10 16 0.00 0.00
9:51 pm 21:51 Partly Cloudy 70 21.1 59 15 68 68 S 9 15 29.78 1009 10 16 0.00 0.00
10:51 pm 22:51 Partly Cloudy 59 15 52 11.1 78 78 S 12 19 29.79 1009 9 14 0.00 0.00
11:29 pm 23:29 Mostly Clear 57 14 N/A N/A S 14 22 29.78 1008 9 14 0.00 0.00
11:43 pm 23:43 Mostly Cloudy 58 14.4 54 12.2 87 87 S 16 26 29.79 1009 8 13 0.00 0.00
11:51 pm 23:51 Cloudy with Mist and Fog 58 14.4 54 12.2 87 87 S 14 22 29.79 1009 4 6 0.00 0.00

Powered by Vaisala Xweather